When you browse on this site, cookies collect data to enhance your experience and personalize the content and advertising you see.
Visit our Privacy Policy to learn more. By continuing to use the site, you agree to this use of cookies and data.
  • In Czech Republic
  • List of Countries
  • For 7 days
  • Water Temperature
  • Weather Map
  • Weather Widgets
  • user-avatar
    Login

    Hourly Weather Ali Bayramli

    Today, 17 November, Sunday

    Time Temperature Precipitation Wind Pressure Humidity
    00:00 +9°C° 0 mm 1 mps 773 mmHg 71%
    01:00 +8°C° 0 mm 1 mps 773 mmHg 72%
    02:00 +8°C° 0 mm 1 mps 773 mmHg 74%
    03:00 +7°C° 0 mm 1 mps 772 mmHg 74%
    04:00 +6°C° 0 mm 2 mps 773 mmHg 75%
    05:00 +6°C° 0 mm 2 mps 773 mmHg 76%
    06:00 +6°C° 0 mm 2 mps 773 mmHg 77%
    07:00 +7°C° 0 mm 2 mps 773 mmHg 72%
    08:00 +8°C° 0 mm 2 mps 773 mmHg 67%
    09:00 +9°C° 0 mm 2 mps 773 mmHg 60%
    10:00 +10°C° 0 mm 2 mps 773 mmHg 56%
    11:00 +12°C° 0 mm 2 mps 772 mmHg 51%
    12:00 +13°C° 0 mm 2 mps 772 mmHg 46%
    13:00 +13°C° 0 mm 1 mps 772 mmHg 45%
    14:00 +13°C° 0 mm 1 mps 771 mmHg 44%
    15:00 +13°C° 0 mm 1 mps 771 mmHg 42%
    16:00 +12°C° 0 mm 1 mps 771 mmHg 48%
    17:00 +10°C° 0 mm 2 mps 771 mmHg 53%
    18:00 +10°C° 0 mm 2 mps 771 mmHg 58%
    19:00 +9°C° 0 mm 2 mps 771 mmHg 62%
    20:00 +9°C° 0 mm 2 mps 771 mmHg 66%
    21:00 +9°C° 0 mm 1 mps 771 mmHg 70%
    22:00 +9°C° 0 mm 1 mps 771 mmHg 72%
    23:00 +9°C° 0 mm 1 mps 771 mmHg 74%

    Tomorrow, 18 November, Monday

    Time Temperature Precipitation Wind Pressure Humidity
    00:00 +9°C° 0 mm 1 mps 771 mmHg 76%
    01:00 +9°C° 0 mm 1 mps 770 mmHg 76%
    02:00 +8°C° 0 mm 1 mps 770 mmHg 77%
    03:00 +8°C° 0 mm 1 mps 770 mmHg 77%
    04:00 +8°C° 0 mm 1 mps 770 mmHg 77%
    05:00 +8°C° 0 mm 1 mps 770 mmHg 77%
    06:00 +7°C° 0 mm 1 mps 770 mmHg 77%
    07:00 +8°C° 0 mm 2 mps 770 mmHg 71%
    08:00 +9°C° 0 mm 2 mps 770 mmHg 65%
    09:00 +10°C° 0 mm 2 mps 770 mmHg 59%
    10:00 +12°C° 0 mm 2 mps 770 mmHg 56%
    11:00 +13°C° 0 mm 1 mps 769 mmHg 52%
    12:00 +14°C° 0 mm 1 mps 769 mmHg 49%
    13:00 +14°C° 0 mm 1 mps 769 mmHg 48%
    14:00 +14°C° 0 mm 1 mps 768 mmHg 48%
    15:00 +14°C° 0 mm 1 mps 768 mmHg 47%
    16:00 +14°C° 0 mm 1 mps 768 mmHg 49%
    17:00 +13°C° 0 mm 1 mps 768 mmHg 51%
    18:00 +13°C° 0 mm 2 mps 768 mmHg 53%
    19:00 +12°C° 0.3 mm 2 mps 768 mmHg 61%
    20:00 +10°C° 0.3 mm 2 mps 768 mmHg 69%
    21:00 +10°C° 0.3 mm 2 mps 768 mmHg 77%
    22:00 +10°C° 0.2 mm 2 mps 768 mmHg 78%
    23:00 +9°C° 0.2 mm 2 mps 768 mmHg 79%

    Day after tomorrow, 19 November, Tuesday

    Time Temperature Precipitation Wind Pressure Humidity
    00:00 +9°C° 0.2 mm 2 mps 768 mmHg 80%
    01:00 +9°C° 0 mm 2 mps 767 mmHg 79%
    02:00 +9°C° 0 mm 2 mps 767 mmHg 78%
    03:00 +9°C° 0 mm 3 mps 767 mmHg 77%
    04:00 +9°C° 0 mm 3 mps 767 mmHg 75%
    05:00 +9°C° 0 mm 2 mps 767 mmHg 74%
    06:00 +9°C° 0 mm 2 mps 767 mmHg 72%
    07:00 +9°C° 0 mm 2 mps 767 mmHg 71%
    08:00 +10°C° 0 mm 3 mps 767 mmHg 69%
    09:00 +10°C° 0 mm 3 mps 767 mmHg 68%
    10:00 +10°C° 0.3 mm 3 mps 767 mmHg 68%
    11:00 +10°C° 0.3 mm 3 mps 767 mmHg 69%
    12:00 +10°C° 0.3 mm 3 mps 766 mmHg 69%
    13:00 +11°C° 0.1 mm 3 mps 766 mmHg 64%
    14:00 +12°C° 0.1 mm 3 mps 766 mmHg 58%
    15:00 +13°C° 0.1 mm 3 mps 766 mmHg 52%
    16:00 +13°C° 0 mm 2 mps 766 mmHg 57%
    17:00 +12°C° 0 mm 2 mps 766 mmHg 62%
    18:00 +10°C° 0 mm 2 mps 766 mmHg 66%
    19:00 +10°C° 0 mm 2 mps 766 mmHg 68%
    20:00 +10°C° 0 mm 2 mps 767 mmHg 70%
    21:00 +10°C° 0 mm 1 mps 767 mmHg 72%
    22:00 +10°C° 0 mm 1 mps 766 mmHg 73%
    23:00 +10°C° 0 mm 1 mps 766 mmHg 75%

    20 November, Wednesday

    Time Temperature Precipitation Wind Pressure Humidity
    00:00 +9°C° 0 mm 1 mps 766 mmHg 76%
    01:00 +9°C° 0 mm 1 mps 766 mmHg 77%
    02:00 +9°C° 0 mm 1 mps 766 mmHg 77%
    03:00 +8°C° 0 mm 1 mps 766 mmHg 78%
    04:00 +8°C° 0 mm 1 mps 766 mmHg 79%
    05:00 +8°C° 0 mm 1 mps 766 mmHg 80%
    06:00 +6°C° 0 mm 0 mps 766 mmHg 81%
    07:00 +8°C° 0 mm 0 mps 766 mmHg 73%
    08:00 +11°C° 0 mm 1 mps 766 mmHg 65%
    09:00 +12°C° 0 mm 1 mps 766 mmHg 57%
    10:00 +13°C° 0 mm 1 mps 766 mmHg 53%
    11:00 +14°C° 0 mm 1 mps 766 mmHg 48%
    12:00 +15°C° 0 mm 2 mps 765 mmHg 44%
    13:00 +15°C° 0 mm 2 mps 765 mmHg 44%
    14:00 +14°C° 0 mm 3 mps 765 mmHg 44%
    15:00 +16°C° 0 mm 3 mps 765 mmHg 44%
    16:00 +13°C° 0 mm 4 mps 765 mmHg 52%
    17:00 +12°C° 0 mm 4 mps 765 mmHg 61%
    18:00 +10°C° 0 mm 5 mps 766 mmHg 69%
    19:00 +10°C° 0 mm 5 mps 766 mmHg 70%
    20:00 +9°C° 0 mm 5 mps 766 mmHg 72%
    21:00 +9°C° 0 mm 5 mps 766 mmHg 73%
    22:00 +9°C° 0 mm 5 mps 766 mmHg 72%
    23:00 +9°C° 0 mm 5 mps 766 mmHg 71%

    21 November, Thursday

    Time Temperature Precipitation Wind Pressure Humidity
    00:00 +8°C° 0 mm 5 mps 766 mmHg 71%
    01:00 +8°C° 0 mm 5 mps 766 mmHg 71%
    02:00 +8°C° 0 mm 5 mps 766 mmHg 71%
    03:00 +8°C° 0 mm 5 mps 766 mmHg 71%
    04:00 +8°C° 0 mm 5 mps 766 mmHg 69%
    05:00 +8°C° 0 mm 6 mps 766 mmHg 67%
    06:00 +8°C° 0 mm 6 mps 766 mmHg 65%
    07:00 +8°C° 0 mm 7 mps 766 mmHg 67%
    08:00 +8°C° 0 mm 7 mps 767 mmHg 69%
    09:00 +9°C° 0 mm 8 mps 767 mmHg 71%
    10:00 +9°C° 0 mm 8 mps 767 mmHg 70%
    11:00 +9°C° 0 mm 7 mps 767 mmHg 68%
    12:00 +9°C° 0 mm 7 mps 767 mmHg 67%
    13:00 +9°C° 0 mm 7 mps 767 mmHg 64%
    14:00 +9°C° 0 mm 7 mps 767 mmHg 62%
    15:00 +9°C° 0 mm 7 mps 767 mmHg 60%
    16:00 +8°C° 0 mm 7 mps 767 mmHg 63%
    17:00 +7°C° 0 mm 8 mps 768 mmHg 66%
    18:00 +6°C° 0 mm 8 mps 768 mmHg 70%
    19:00 +6°C° 0 mm 9 mps 769 mmHg 70%
    20:00 +6°C° 0 mm 10 mps 769 mmHg 70%
    21:00 +4°C° 0 mm 11 mps 769 mmHg 70%
    22:00 +5°C° 0 mm 10 mps 770 mmHg 67%
    23:00 +6°C° 0 mm 9 mps 770 mmHg 64%

    22 November, Friday

    Time Temperature Precipitation Wind Pressure Humidity
    00:00 +6°C° 0 mm 8 mps 770 mmHg 61%
    01:00 +5°C° 0.1 mm 8 mps 770 mmHg 66%
    02:00 +5°C° 0.1 mm 8 mps 771 mmHg 70%
    03:00 +4°C° 0.1 mm 8 mps 771 mmHg 75%
    04:00 +4°C° 0.1 mm 7 mps 771 mmHg 72%
    05:00 +4°C° 0.1 mm 7 mps 772 mmHg 69%
    06:00 +5°C° 0.1 mm 6 mps 773 mmHg 66%
    07:00 +5°C° 0 mm 6 mps 773 mmHg 64%
    08:00 +5°C° 0 mm 6 mps 774 mmHg 62%
    09:00 +5°C° 0 mm 7 mps 774 mmHg 60%
    10:00 +7°C° 0 mm 6 mps 774 mmHg 58%
    11:00 +7°C° 0 mm 6 mps 774 mmHg 56%
    12:00 +7°C° 0 mm 6 mps 774 mmHg 53%
    13:00 +7°C° 0 mm 6 mps 774 mmHg 53%
    14:00 +7°C° 0 mm 6 mps 774 mmHg 52%
    15:00 +7°C° 0 mm 5 mps 774 mmHg 52%
    16:00 +6°C° 0 mm 5 mps 774 mmHg 55%
    17:00 +6°C° 0 mm 4 mps 775 mmHg 58%
    18:00 +5°C° 0 mm 4 mps 775 mmHg 62%
    19:00 +5°C° 0 mm 3 mps 775 mmHg 63%
    20:00 +5°C° 0 mm 3 mps 775 mmHg 65%
    21:00 +4°C° 0 mm 3 mps 775 mmHg 66%
    22:00 +4°C° 0 mm 3 mps 775 mmHg 68%
    23:00 +4°C° 0 mm 3 mps 775 mmHg 70%
    Show more